Weather History for Liberal, KS

Change the Weather History Date:

Sunday, May 11, 2014

  Actual Average Record
Temperature  
Mean Temperature 72 °F -  
Max Temperature 95 °F 80 °F 101 °F (1962)
Min Temperature 50 °F 50 °F 30 °F (1946)
Cooling Degree Days 8    
Growing Degree Days 22 (Base 50)    
Moisture  
Dew Point 34 °F    
Average Humidity 29    
Maximum Humidity 62    
Minimum Humidity 11    
Precipitation  
Precipitation 0.00 in - - ()
Sea Level Pressure  
Sea Level Pressure 29.60 in    
Wind  
Wind Speed 15 mph (SW)    
Max Wind Speed 43 mph    
Max Gust Speed 51 mph    
Visibility 9 miles    
Events      
Averages and records for this station are not official NWS values.
T = Trace of Precipitation, MM = Missing Value Source: NWS Daily Summary

Daily Weather History Graph

Daily Weather History Graph

Search for Another Location

Airport:

Trip Planner

Search our weather history database for the weather conditions in past years. The results will help you decide how hot, cold, wet, or windy it might be!

Date:

Astronomy

May. 11, 2014 Rise Set
Actual Time 6:39 AM CDT 8:41 PM CDT
Civil Twilight 6:10 AM CDT 9:10 PM CDT
Nautical Twilight 5:35 AM CDT 9:45 PM CDT
Astronomical Twilight 4:57 AM CDT 10:23 PM CDT
Moon 5:43 PM CDT (5/11) 4:40 AM CDT (5/11)
Length of Visible Light 15h 00m
Length of Day
14h 02m
Waxing Gibbous, 89% of the Moon is Illuminated
May 11
Waxing Gibbous
May 14
Full
May 21
Last Quarter
May 28
New
Jun 5
First Quarter

Hourly Weather History & Observations

Time (CDT) Temp. Dew Point Humidity Pressure Visibility Wind Dir Wind Speed Gust Speed Precip Events Conditions
12:15 AM 66.2 °F 28.4 °F 24% 29.60 in 10.0 mi SE 8.1 mph - N/A   Clear
12:35 AM 66.2 °F 28.4 °F 24% 29.60 in 10.0 mi SE 6.9 mph - N/A   Clear
12:55 AM 64.4 °F 26.6 °F 24% 29.59 in 10.0 mi SSE 8.1 mph - N/A   Clear
1:15 AM 62.6 °F 24.8 °F 24% 29.59 in 10.0 mi SE 11.5 mph - N/A   Clear
1:35 AM 60.8 °F 24.8 °F 25% 29.58 in 10.0 mi South 11.5 mph - N/A   Clear
1:55 AM 59.0 °F 24.8 °F 27% 29.57 in 10.0 mi South 9.2 mph - N/A   Clear
2:15 AM 57.2 °F 26.6 °F 31% 29.57 in 10.0 mi SE 10.4 mph - N/A   Clear
2:35 AM 57.2 °F 26.6 °F 31% 29.56 in 10.0 mi SSE 8.1 mph - N/A   Clear
2:55 AM 57.2 °F 26.6 °F 31% 29.56 in 10.0 mi SE 6.9 mph - N/A   Clear
3:15 AM 57.2 °F 26.6 °F 31% 29.56 in 10.0 mi SE 10.4 mph - N/A   Clear
3:35 AM 59.0 °F 28.4 °F 31% 29.55 in 10.0 mi SSE 10.4 mph - N/A   Clear
3:55 AM 59.0 °F 26.6 °F 29% 29.55 in 10.0 mi SSE 13.8 mph - N/A   Clear
4:15 AM 60.8 °F 26.6 °F 27% 29.56 in 10.0 mi SSE 16.1 mph - N/A   Clear
4:35 AM 62.6 °F 24.8 °F 24% 29.56 in 10.0 mi SSE 15.0 mph - N/A   Clear
4:55 AM 62.6 °F 24.8 °F 24% 29.56 in 10.0 mi South 13.8 mph - N/A   Clear
5:15 AM 60.8 °F 23.0 °F 23% 29.56 in 10.0 mi SSE 12.7 mph - N/A   Clear
5:35 AM 57.2 °F 21.2 °F 25% 29.56 in 10.0 mi South 10.4 mph - N/A   Clear
5:55 AM 55.4 °F 21.2 °F 26% 29.56 in 10.0 mi SSE 12.7 mph - N/A   Clear
6:15 AM 57.2 °F 24.8 °F 29% 29.56 in 10.0 mi South 12.7 mph - N/A   Clear
6:35 AM 59.0 °F 26.6 °F 29% 29.56 in 10.0 mi South 13.8 mph - N/A   Clear
6:55 AM 60.8 °F 28.4 °F 29% 29.57 in 10.0 mi South 13.8 mph - N/A   Clear
7:15 AM 62.6 °F 30.2 °F 30% 29.58 in 10.0 mi South 13.8 mph - N/A   Clear
7:35 AM 64.4 °F 32.0 °F 30% 29.59 in 10.0 mi South 16.1 mph - N/A   Clear
7:55 AM 66.2 °F 35.6 °F 32% 29.59 in 10.0 mi South 20.7 mph 26.5 mph N/A   Clear
8:15 AM 69.8 °F 37.4 °F 31% 29.60 in 10.0 mi SSW 19.6 mph - N/A   Clear
8:35 AM 71.6 °F 37.4 °F 29% 29.61 in 10.0 mi SSW 24.2 mph 31.1 mph N/A   Clear
8:55 AM 73.4 °F 39.2 °F 29% 29.62 in 10.0 mi SW 21.9 mph 29.9 mph N/A   Clear
9:15 AM 73.4 °F 35.6 °F 25% 29.62 in 10.0 mi SW 19.6 mph 25.3 mph N/A   Clear
9:35 AM 75.2 °F 32.0 °F 21% 29.63 in 10.0 mi SW 18.4 mph - N/A   Clear
9:55 AM 75.2 °F 32.0 °F 21% 29.63 in 10.0 mi WSW 21.9 mph 25.3 mph N/A   Clear
10:15 AM 77.0 °F 30.2 °F 18% 29.63 in 10.0 mi WSW 21.9 mph 26.5 mph N/A   Clear
10:35 AM 78.8 °F 28.4 °F 16% 29.63 in 10.0 mi WSW 16.1 mph - N/A   Clear
10:55 AM 78.8 °F 30.2 °F 17% 29.63 in 10.0 mi West 16.1 mph - N/A   Clear
11:15 AM 78.8 °F 33.8 °F 20% 29.63 in 10.0 mi West 15.0 mph - N/A   Clear
11:35 AM 80.6 °F 33.8 °F 18% 29.62 in 10.0 mi WSW 10.4 mph 20.7 mph N/A   Clear
11:55 AM 80.6 °F 35.6 °F 20% 29.63 in 10.0 mi West 11.5 mph 16.1 mph N/A   Clear
12:15 PM 82.4 °F 35.6 °F 19% 29.62 in 10.0 mi West 11.5 mph - N/A   Clear
12:35 PM 82.4 °F 35.6 °F 19% 29.62 in 10.0 mi West 9.2 mph - N/A   Clear
12:55 PM 82.4 °F 37.4 °F 20% 29.60 in 10.0 mi WNW 10.4 mph 16.1 mph N/A   Clear
1:15 PM 84.2 °F 37.4 °F 19% 29.59 in 10.0 mi West 11.5 mph 18.4 mph N/A   Clear
1:35 PM 84.2 °F 37.4 °F 19% 29.58 in 10.0 mi West 11.5 mph - N/A   Clear
1:55 PM 86.0 °F 37.4 °F 18% 29.56 in 10.0 mi West 6.9 mph - N/A   Clear
2:15 PM 87.8 °F 39.2 °F 18% 29.55 in 10.0 mi SSW 8.1 mph - N/A   Clear
2:35 PM 89.6 °F 37.4 °F 16% 29.54 in 10.0 mi South 4.6 mph - N/A   Clear
2:55 PM 89.6 °F 37.4 °F 16% 29.52 in 10.0 mi South 10.4 mph 16.1 mph N/A   Clear
3:15 PM 89.6 °F 37.4 °F 16% 29.51 in 10.0 mi SSW 5.8 mph 20.7 mph N/A   Clear
3:35 PM 89.6 °F 37.4 °F 16% 29.50 in 10.0 mi West 8.1 mph - N/A   Clear
3:55 PM 93.2 °F 41.0 °F 16% 29.48 in 10.0 mi SSW 28.8 mph 38.0 mph N/A   Clear
4:15 PM 91.4 °F 42.8 °F 18% 29.47 in 10.0 mi SSW 26.5 mph 32.2 mph N/A   Clear
4:35 PM 93.2 °F 39.2 °F 15% 29.47 in 10.0 mi South 26.5 mph 29.9 mph N/A   Clear
4:55 PM 93.2 °F 39.2 °F 15% 29.46 in 10.0 mi SSW 29.9 mph 35.7 mph N/A   Clear
5:15 PM 93.2 °F 35.6 °F 13% 29.47 in 10.0 mi SSW 26.5 mph 32.2 mph N/A   Clear
5:35 PM 93.2 °F 33.8 °F 12% 29.47 in 10.0 mi SSW 28.8 mph 36.8 mph N/A   Clear
5:55 PM 95.0 °F 32.0 °F 11% 29.48 in 10.0 mi WSW 33.4 mph 39.1 mph N/A   Clear
6:15 PM 89.6 °F 30.2 °F 12% 29.53 in 5.0 mi NW 19.6 mph 34.5 mph N/A   Clear
6:35 PM 75.2 °F 44.6 °F 34% 29.55 in 3.0 mi NNW 42.6 mph 50.6 mph N/A   Clear
6:55 PM 69.8 °F 42.8 °F 38% 29.58 in 2.5 mi NNW 38.0 mph 47.2 mph N/A   Clear
7:15 PM 64.4 °F 44.6 °F 49% 29.59 in 3.0 mi NNW 41.4 mph 49.5 mph N/A   Clear
7:35 PM 62.6 °F 42.8 °F 48% 29.61 in 3.0 mi North 38.0 mph 48.3 mph N/A   Clear
7:55 PM 60.8 °F 41.0 °F 48% 29.63 in 2.5 mi North 40.3 mph 47.2 mph N/A   Clear
8:15 PM 57.2 °F 41.0 °F 55% 29.65 in 4.0 mi North 39.1 mph 48.3 mph N/A   Partly Cloudy
8:35 PM 55.4 °F 39.2 °F 54% 29.65 in 5.0 mi North 41.4 mph 48.3 mph N/A   Partly Cloudy
8:55 PM 53.6 °F 39.2 °F 58% 29.67 in 7.0 mi North 32.2 mph 43.7 mph N/A   Scattered Clouds
9:15 PM 53.6 °F 39.2 °F 58% 29.70 in 9.0 mi North 34.5 mph 44.9 mph N/A   Mostly Cloudy
9:35 PM 53.6 °F 37.4 °F 54% 29.72 in 10.0 mi NNW 31.1 mph 39.1 mph N/A   Overcast
9:55 PM 51.8 °F 39.2 °F 62% 29.73 in 10.0 mi North 34.5 mph 44.9 mph N/A   Overcast
10:15 PM 51.8 °F 37.4 °F 58% 29.76 in 10.0 mi NNW 32.2 mph 41.4 mph N/A   Overcast
10:35 PM 51.8 °F 37.4 °F 58% 29.79 in 10.0 mi North 29.9 mph 40.3 mph N/A   Overcast
11:15 PM 51.8 °F 37.4 °F 58% 29.83 in 10.0 mi NNW 24.2 mph 33.4 mph N/A   Overcast
11:35 PM 50.0 °F 37.4 °F 62% 29.82 in 10.0 mi NNW 31.1 mph 35.7 mph N/A   Overcast
11:55 PM 50.0 °F 37.4 °F 62% 29.80 in 10.0 mi NNW 25.3 mph 34.5 mph N/A   Overcast